Regional Weather Roundup
Issued by NWS

Home | Current Version | Previous Version | Text Only | Print | Product List | Glossary Off
Versions: 1 2 3 4 5 6 7 8 9 10 11 12 13 14 15 16 17 18 19 20 21 22 23 24 25 26 27 28 29 30 31 32 33 34 35 36 37 38 39 40 41 42 43 44 45 46 47 48

000
ASUS45 KCYS 262210
RWRWY

WYOMING REGIONAL WEATHER ROUNDUP
NATIONAL WEATHER SERVICE CHEYENNE WY
300 PM MST MON JAN 26 2015

NOTE:  "FAIR" INDICATES FEW OR NO CLOUDS BELOW 12,000 FEET
WITH NO SIGNIFICANT WEATHER AND/OR OBSTRUCTIONS TO VISIBILITY.

WYZ001-262300-
YELLOWSTONE NATIONAL PARK

CITY           SKY/WX    TMP DP  RH WIND       PRES   REMARKS
LK YELLOWSTONE   N/A     33  21  61 CALM      30.35F
W YELLOWSTONE  NOT AVBL

$$
WYZ002>013-054>058-071-098>099-262300-
NORTHERN WYOMING

CITY           SKY/WX    TMP DP  RH WIND       PRES   REMARKS
JACKSON        PTSUNNY   25  23  93 CALM      30.35F FOG
CODY           FAIR      41  32  70 NE9       30.14S
GREYBULL       FAIR      39  28  64 N5        30.16F
WORLAND        FAIR      35  28  75 S3        30.16F
SHERIDAN       FAIR      62  35  36 S5        30.05S
BUFFALO          N/A    N/A N/A N/A MISG      30.10F
GILLETTE       FAIR      61  35  37 SW12      30.09R
HULETT           N/A    N/A N/A N/A MISG        N/A
NEWCASTLE      FAIR      61  28  29 N3        30.10S

$$
WYZ014>020-022>026-101>103-262300-
CENTRAL WYOMING

CITY           SKY/WX    TMP DP  RH WIND       PRES   REMARKS
BIG PINEY      FAIR      43  26  51 E3        30.34F
PINEDALE       FAIR      39  27  60 CALM      30.35S
DUBOIS         FAIR      59  23  25 NW9       30.25S
LANDER         FAIR      40  28  62 CALM      30.20F
RIVERTON       FAIR      43  29  57 E6        30.23F
CASPER         FAIR      53  29  39 SW16G26   30.20S
DOUGLAS        FAIR      64  25  22 NW16      30.16

$$
WYZ021-027>030-104>119-262300-
SOUTHERN WYOMING

CITY           SKY/WX    TMP DP  RH WIND       PRES   REMARKS
EVANSTON       FAIR      49  31  49 CALM      30.31F
KEMMERER       FAIR      50  27  40 N5        30.33S
FORT BRIDGER   FAIR      51  33  50 CALM      30.34F
ROCK SPRINGS   FAIR      53  28  38 N5        30.32F
DIXON          FAIR      46  29  51 CALM      30.38S
RAWLINS        FAIR      52  25  35 SW12      30.33F
SARATOGA       FAIR      54  25  32 CALM      30.34S
LARAMIE        FAIR      55  25  31 N12       30.29R
CHEYENNE       FAIR      66  19  16 NW16      30.21S
TORRINGTON     FAIR      68  28  22 W13       30.12S
PINE BLUFFS    FAIR      66  21  18 NW16G23   30.18S

$$


USA.gov is the U.S. government's official web portal to all federal, state and local government web resources and services.